sat.trackr.live / text

‹ back to catalog

QPS-SAR-11 (YAMATSUMI-I)

NORAD 64340 · 2025-125A

PAYLOAD ACTIVE UNKNOWN

§ Identity

Operator
Country
JPN
Launch date
2025-06-11
Launch site
RLLB
Launch vehicle
Mass (kg)
RCS (m²)

External: N2YO · Heavens-Above · Gunter

§ Orbital elements

Epoch: 2026-05-25T04:12:29.929824Z

Period
95.91 min
Inclination
42.0088°
Eccentricity
0.0010471
Mean motion
15.01375790 rev/d
Perigee alt
555.4 km
Apogee alt
569.9 km
Semi-major
6,940.8 km
B*
3.5893e-4
RAAN
318.6366°
Arg perigee
332.1677°
Mean anomaly
27.8588°
Rev number
5,216

§ Raw data

QPS-SAR-11 (YAMATSUMI-I)1 64340U 25125A   26145.17534641  .00004525  00000+0  35893-3 0  99972 64340  42.0088 318.6366 0010471 332.1677  27.8588 15.01375790 52166

JSON: /api/v1/satellites/64340 · /tle

For live sub-satellite position, see the globe view (requires WebGL).

§ Visibility from observer

Set your observer location to see the next 7 days of passes ≥ 10°. The values pass through the URL so the page stays shareable.

No JS? Fill the form by hand. The geolocation button needs JavaScript.